STARLINK-11189, 60188

Orbit data source: Space-Track

STARLINK-11189, 60188 is a payload satellite owned by SpaceX/Seattle (US) in LEO that was launched on Wed, 03 Jul 2024 UTC via an FALCON 9 launch vehicle from the Air Force Eastern Test Range (AFETR). Payloads include a variety of satellites, spacecraft, and rockets equipped with specific instruments for various scientific and technological missions. These include communications satellites like Starlink; space stations such as the ISS; scientific satellites like the Hubble; Earth observation satellites from companies like Planet Labs, Umbra, and HawkEye 360; GPS; miniature CubeSats for education and research; and military/defense satellites.

Loading next visibility...
STARLINK-11189 details
Identifier
60188, 2024-124F
Orbit
LEO
Last TLE update15 hours ago
Origin
Flag of USSpaceX/Seattle (US)
ManufacturerSpaceX/Seattle
MissionOperational spacecraft
Bus & MotorSTARLINK V2M, Unknown motor
Mass730 kg wet, ~700 kg dry
Launch date (UTC)
2024-07-03 (6 months ago)
Launch vehicle
FALCON 9
Launch site
Air Force Eastern Test Range (AFETR)
Object type
Payload
Rocket body
Debris
Shape & HBRUnknown
Radar Cross SectionLarge (>1 m²)

Expand to show TLE details & history

TLE from 15 hours ago
0 STARLINK-11189
1 60188U 24124F   24355.94381483  .00001755  00000-0  19348-4 0  9992
2 60188  53.1581 189.1370 0001305 139.5305 220.5810 15.69705954 26830
Epoch: 2024-12-20T22:39Z
Definitive object data (Epoch: 2024-12-20T22:39:05.601Z)
Latitude-0.00002°
Longitude119.36158°
Altitude361.321 km
Speed7.693 km/s
True Right ascension12h 36m 32s
True Declination0° 00' 00"
Sunlit
Object was in daylight at TLE epoch
Visualization TLE readout
Latitude-44.59934°
Longitude-16.39289°
Altitude374.926 km
Speed7.684 km/s
Apparent Right ascension01h 59m 41s
Apparent Declination-44° 33' 36"
Sunlit
Object is in daylight
Visualization observer readout
Local Sidereal Time12:27:32
Azimuth247.163° WSW
Elevation-72.389°
Doppler factor1
Orbital elements
Apogee altitude360.879 km
Perigee altitude359.12 km
Semi-major axis6,738.136 km
Eccentricity0.0001305
Inclination53.1581°
RAAN189.137°
Arg. of periapsis139.5305°
True anomaly220.57127°
Mean anomaly220.581°
Eccentric anomaly220.57614°
Mean motion3.92404 °/min
BSTAR0.000019348
Orbital period91.74 mins
Loading maneuver chart data...
Loading historical data...
Loading historical data...
Loading historical data...
Loading historical data...
Loading historical data...
Loading historical data...
Loading historical data...

STARLINK-11189 Visibility forecast

Observer location: undefined°, undefined

Span
Click to sort rows by Start time (UTC) header in descending order
Start Az.
Max El. time (UTC)
Max El. Az.
Max El.
End time (UTC)
End Az.
4 mins2024-12-21 15:38:34.984Z213.994° SW2024-12-21 15:40:34.984Z141.897° SSE40.772°2024-12-21 15:42:34.984Z60.817° ENE
4 mins2024-12-21 22:03:34.984Z334.717° NNW2024-12-21 22:05:34.984Z50.611° ENE30.688°2024-12-21 22:07:34.984Z101.437° ESE
|